Home > Time Zones > World Clock > Weather > Italy > Monza > Past weeks

Flag for Italy Weather past 2 weeks in Monza, Italy

Now
73 °F

Scattered clouds.


Feels Like: 76 °F
Forecast: 63 / 73 °F
Wind: 5 mph from Southwest

Location: Milan / Linate

Current Time: Sep 2, 2015 at 11:08:59 AM

Latest Report: Sep 2, 2015 at 10:20 AM


Visibility: N/A

Pressure: 29.89 "Hg

Humidity: 69%

Dew point: 63 °F

Location of MonzaLocation

Historic Weather in Monza — Graph

°F

Monza temperature yesterday

Maximum temperature yesterday: 86 °F (at 12:50 PM)
Minimum temperature yesterday: 66 °F (at 3:50 AM)
Average temperature yesterday: 77 °F

Past Weeks' High & Low Weather Summary

 TemperatureHumidityPressure
High91 °F (Aug 29, 4:20 PM)100% (Aug 24, 6:50 AM)30.21 "Hg (Aug 24, 6:50 AM)
Low63 °F (Aug 19, 6:50 AM)20% (Aug 31, 5:20 PM)29.83 "Hg (Sep 2, 5:20 AM)
Average74 °F68%30.02 "Hg
* Reported Aug 18 9:20 AM — Sep 2 9:50 AM, Monza, Weather by CustomWeather, © 2015

Note: Actual official high and low records may vary slightly from our data, if they occured in-between our weather recording intervals... More about our weather records

Advertising

Monza weather history for previous 24 hours

 ConditionsComfort  
Time TempWeatherWind HumidityBarometerVisibility
9:50 AM
Wed, Sep 2
72 °FPassing clouds.3 mph78%29.86 "HgN/A
9:20 AM73 °FPassing clouds.3 mph74%29.86 "HgN/A
8:50 AM72 °FPassing clouds.3 mph78%29.86 "HgN/A
8:20 AM68 °FPassing clouds.3 mph94%29.86 "HgN/A
7:50 AM68 °FScattered clouds.3 mph88%29.86 "HgN/A
7:20 AM66 °FPassing clouds.3 mph94%29.86 "Hg5 mi
6:50 AM66 °FPassing clouds.No wind94%29.86 "Hg5 mi
5:50 AM68 °FPassing clouds.2 mph88%29.83 "HgN/A
5:20 AM68 °FPassing clouds.1 mph88%29.83 "HgN/A
4:50 AM68 °FPassing clouds.1 mph88%29.86 "HgN/A
4:20 AM68 °FPassing clouds.No wind88%29.86 "HgN/A
3:50 AM68 °FPassing clouds.No wind88%29.86 "HgN/A
3:20 AM70 °FPassing clouds.2 mph83%29.86 "HgN/A
2:50 AM68 °FPassing clouds.2 mph88%29.86 "HgN/A
2:20 AM70 °FPassing clouds.2 mph88%29.86 "HgN/A
1:50 AM70 °FPassing clouds.1 mph83%29.89 "HgN/A
1:20 AM70 °FPassing clouds.No wind83%29.89 "HgN/A
12:50 AM72 °FPassing clouds.1 mph78%29.89 "HgN/A
11:20 PM
Tue, Sep 1
73 °FPassing clouds.5 mph74%29.89 "HgN/A
10:50 PM73 °FPassing clouds.2 mph69%29.89 "HgN/A
10:20 PM75 °FThundershowers. Passing clouds.6 mph69%29.89 "HgN/A
9:50 PM77 °FThundershowers. Passing clouds.7 mph61%29.89 "HgN/A
9:20 PM77 °FThundershowers. Passing clouds.6 mph69%29.89 "HgN/A
8:50 PM77 °FThundershowers. Partly sunny.6 mph69%29.89 "HgN/A
8:20 PM79 °FRain. Partly sunny.8 mph65%29.86 "HgN/A
7:50 PM82 °FScattered clouds.3 mph51%29.86 "HgN/A
7:20 PM82 °FScattered clouds.2 mph45%29.86 "HgN/A
6:50 PM84 °FScattered clouds.2 mph43%29.86 "HgN/A
6:20 PM84 °FPassing clouds.1 mph43%29.86 "HgN/A
5:50 PM86 °FSunny.3 mph40%29.86 "Hg10 mi
5:20 PM82 °FSunny.2 mph48%29.86 "Hg10 mi
4:50 PM84 °FPassing clouds.5 mph43%29.89 "HgN/A
4:20 PM84 °FPassing clouds.7 mph43%29.89 "HgN/A
3:50 PM84 °FPassing clouds.3 mph37%29.89 "HgN/A
3:20 PM84 °FPassing clouds.3 mph37%29.89 "HgN/A
2:50 PM82 °FLight rain. Scattered clouds.5 mph40%29.92 "HgN/A
2:20 PM81 °FLight rain. Partly sunny.6 mph42%29.92 "HgN/A
1:50 PM82 °FPartly sunny.7 mph37%29.92 "HgN/A
1:20 PM84 °FScattered clouds.8 mph35%29.92 "HgN/A
12:50 PM86 °FScattered clouds.3 mph38%29.92 "HgN/A
12:20 PM84 °FPassing clouds.5 mph35%29.92 "HgN/A
11:50 AM84 °FPassing clouds.3 mph40%29.92 "HgN/A
11:20 AM82 °FSunny.5 mph45%29.92 "Hg10 mi
Weather by CustomWeather, © 2015

See weather overviewHow to use our weather pages